Location: Newark
(8.1700°N, 77.4300°E)
Time: 17:32:15
(UTC+00:00)

Hubble Space Telescope - Visible Passes

Search period start: 23 August 2019 00:00
Search period end: 02 September 2019 00:00
Orbit: 536 x 540 km, 28.5° (Epoch: 23 August)

Date Brightness Start Highest point End Pass type
(mag) Time Alt. Az. Time Alt. Az. Time Alt. Az.
23 Aug 3.3 14:54:05 10° NNW 14:55:13 14° N 14:55:13 14° N visible
24 Aug 2.8 14:43:08 10° NNW 14:45:14 19° N 14:45:14 19° N visible
25 Aug 2.2 14:32:17 10° NW 14:35:19 27° NNE 14:35:19 27° NNE visible
26 Aug 1.5 14:21:30 10° NW 14:25:20 37° NNE 14:25:28 37° NNE visible
27 Aug 1.1 14:10:49 10° NW 14:14:49 51° NNE 14:15:40 43° ENE visible
28 Aug 0.7 14:00:11 10° WNW 14:04:18 74° NNE 14:05:56 35° ESE visible
29 Aug 0.8 13:49:38 10° WNW 13:53:45 78° SSW 13:56:15 23° SE visible
30 Aug 1.3 13:39:11 10° WNW 13:43:12 54° SSW 13:46:38 14° SE visible
31 Aug 1.9 13:28:50 10° W 13:32:39 37° SSW 13:36:29 10° SE visible
01 Sep 2.5 13:18:36 10° W 13:22:06 26° SSW 13:25:36 10° SSE visible
